TimeEDT,TemperatureF,Dew PointF,Humidity,Sea Level PressureIn,VisibilityMPH,Wind Direction,Wind SpeedMPH,Gust SpeedMPH,PrecipitationIn,Events,Conditions,WindDirDegrees,DateUTC
12:51 AM,73.9,60.1,62,30.12,10.0,WSW,5.8,-,N/A,,Clear,240,2013-08-27 04:51:00
1:51 AM,72.0,61.0,68,30.11,10.0,West,5.8,-,N/A,,Clear,270,2013-08-27 05:51:00
2:51 AM,73.0,60.1,64,30.09,10.0,West,5.8,-,N/A,,Clear,260,2013-08-27 06:51:00
3:51 AM,73.0,62.1,68,30.08,10.0,West,6.9,-,N/A,,Clear,260,2013-08-27 07:51:00
4:51 AM,72.0,64.9,78,30.07,10.0,West,4.6,-,N/A,,Clear,260,2013-08-27 08:51:00
5:51 AM,73.0,63.0,71,30.06,10.0,West,5.8,-,N/A,,Clear,260,2013-08-27 09:51:00
6:51 AM,73.0,64.9,76,30.07,10.0,West,5.8,-,N/A,,Clear,270,2013-08-27 10:51:00
7:51 AM,77.0,66.0,69,30.08,10.0,West,9.2,-,N/A,,Clear,280,2013-08-27 11:51:00
8:51 AM,79.0,66.9,66,30.07,10.0,West,6.9,-,N/A,,Clear,270,2013-08-27 12:51:00
10:51 AM,81.0,64.0,56,30.07,10.0,West,9.2,-,N/A,,Clear,270,2013-08-27 14:51:00
11:51 AM,82.9,62.1,49,30.04,10.0,West,10.4,-,N/A,,Clear,270,2013-08-27 15:51:00
12:51 PM,82.9,63.0,51,30.03,10.0,WSW,12.7,18.4,N/A,,Clear,240,2013-08-27 16:51:00
1:51 PM,82.9,64.9,54,30.03,10.0,SW,12.7,-,N/A,,Clear,220,2013-08-27 17:51:00
2:51 PM,84.0,64.0,51,30.01,10.0,SW,13.8,19.6,N/A,,Clear,230,2013-08-27 18:51:00
3:51 PM,84.0,64.0,51,30.00,10.0,WSW,15.0,20.7,N/A,,Clear,240,2013-08-27 19:51:00
4:51 PM,82.0,64.0,54,29.99,10.0,SW,15.0,25.3,N/A,,Clear,230,2013-08-27 20:51:00
5:51 PM,80.1,64.0,58,29.99,10.0,SW,12.7,24.2,N/A,,Clear,230,2013-08-27 21:51:00
6:51 PM,80.1,63.0,56,29.99,10.0,WSW,16.1,23.0,N/A,,Clear,240,2013-08-27 22:51:00
7:51 PM,79.0,64.0,60,29.99,10.0,WSW,16.1,21.9,N/A,,Clear,240,2013-08-27 23:51:00
8:51 PM,79.0,64.9,62,29.99,10.0,WSW,18.4,25.3,N/A,,Clear,240,2013-08-28 00:51:00
9:51 PM,79.0,66.0,64,30.00,10.0,WSW,15.0,-,N/A,,Clear,240,2013-08-28 01:51:00
10:51 PM,79.0,66.9,66,30.00,10.0,WSW,15.0,21.9,N/A,,Clear,240,2013-08-28 02:51:00